Weather History for Rawlins, WY

Change the Weather History Date:

Thursday, May 23, 2013

  Actual Average Record
Temperature  
Mean Temperature 62 °F 52 °F  
Max Temperature 80 °F 66 °F 82 °F (1984)
Min Temperature 44 °F 37 °F 25 °F (1966)
Degree Days  
Heating Degree Days 3 13  
Month to date heating degree days 334 386  
Since 1 July heating degree days 7813 8105  
Cooling Degree Days 0 0  
Month to date cooling degree days 1 0  
Year to date cooling degree days 1 0  
Growing Degree Days 12 (Base 50)    
Moisture  
Dew Point 25 °F    
Average Humidity 42    
Maximum Humidity 76    
Minimum Humidity 8    
Precipitation  
Precipitation 0.00 in 0.04 in 0.43 in (2008)
Month to date precipitation 0.42 1.03  
Year to date precipitation 2.01 3.54  
Sea Level Pressure  
Sea Level Pressure 29.65 in    
Wind  
Wind Speed 15 mph (SE)    
Max Wind Speed 36 mph    
Max Gust Speed 44 mph    
Visibility 10 miles    
Events      
T = Trace of Precipitation, MM = Missing Value Source: NWS Daily Summary

Daily Weather History Graph

Daily Weather History Graph

Search for Another Location

Airport:

Trip Planner

Search our weather history database for the weather conditions in past years. The results will help you decide how hot, cold, wet, or windy it might be!

Date:

Astronomy

May. 23, 2013 Rise Set
Actual Time 5:41 AM MDT 8:30 PM MDT
Civil Twilight 5:08 AM MDT 9:02 PM MDT
Nautical Twilight 4:27 AM MDT 9:44 PM MDT
Astronomical Twilight 3:40 AM MDT 10:31 PM MDT
Moon 7:04 PM MDT (5/23) 4:30 AM MDT (5/23)
Length of Visible Light 15h 53m
Length of Day
14h 48m
Waxing Gibbous, 97% of the Moon is Illuminated
May 23
Waxing Gibbous
May 24
Full
May 31
Last Quarter
Jun 8
New
Jun 16
First Quarter

Hourly Weather History & Observations

Time (MDT) Temp. Windchill Dew Point Humidity Pressure Visibility Wind Dir Wind Speed Gust Speed Precip Events Conditions
12:53 AM 46.0 °F 39.0 °F 37.9 °F 73% 29.72 in 10.0 mi NE 17.3 mph - N/A   Clear
1:53 AM 45.0 °F 38.5 °F 37.9 °F 76% 29.69 in 10.0 mi ENE 13.8 mph - N/A   Clear
2:53 AM 44.1 °F 37.1 °F 37.9 °F 79% 29.71 in 10.0 mi ENE 15.0 mph - N/A   Clear
3:53 AM 45.0 °F 39.7 °F 37.9 °F 76% 29.70 in 10.0 mi NE 10.4 mph - N/A   Clear
4:53 AM 46.0 °F 39.9 °F 39.0 °F 76% 29.70 in 10.0 mi ENE 13.8 mph - N/A   Clear
5:53 AM 45.0 °F 39.3 °F 37.9 °F 76% 29.72 in 10.0 mi ENE 11.5 mph - N/A   Clear
6:53 AM 48.0 °F - 39.9 °F 74% 29.73 in 10.0 mi ENE 10.4 mph - N/A   Clear
7:53 AM 51.1 °F - 39.0 °F 63% 29.74 in 10.0 mi NE 9.2 mph - N/A   Clear
8:53 AM 59.0 °F - 37.9 °F 46% 29.74 in 10.0 mi East 8.1 mph - N/A   Clear
9:53 AM 64.0 °F - 30.9 °F 29% 29.71 in 10.0 mi South 10.4 mph - N/A   Clear
10:53 AM 73.0 °F - 19.9 °F 14% 29.68 in 10.0 mi South 23.0 mph 32.2 mph N/A   Clear
11:53 AM 73.9 °F - 17.1 °F 12% 29.67 in 10.0 mi South 25.3 mph 35.7 mph N/A   Clear
12:53 PM 75.0 °F - 19.9 °F 13% 29.65 in 10.0 mi SSW 23.0 mph 41.4 mph N/A   Clear
1:53 PM 75.9 °F - 18.0 °F 11% 29.64 in 10.0 mi SSW 23.0 mph 32.2 mph N/A   Clear
2:53 PM 79.0 °F - 15.1 °F 9% 29.61 in 10.0 mi South 26.5 mph 40.3 mph N/A   Clear
3:53 PM 78.1 °F - 12.0 °F 8% 29.59 in 10.0 mi South 24.2 mph 39.1 mph N/A   Clear
4:53 PM 77.0 °F - 14.0 °F 9% 29.58 in 10.0 mi SSW 23.0 mph - N/A   Clear
5:53 PM 77.0 °F - 12.0 °F 8% 29.57 in 10.0 mi SSW 25.3 mph 34.5 mph N/A   Clear
6:53 PM 75.0 °F - 12.0 °F 9% 29.56 in 10.0 mi South 23.0 mph 34.5 mph N/A   Clear
7:53 PM 72.0 °F - 10.9 °F 10% 29.57 in 10.0 mi SSW 16.1 mph 26.5 mph N/A   Clear
8:53 PM 62.1 °F - 15.1 °F 16% 29.59 in 10.0 mi SSW 9.2 mph - N/A   Clear
9:53 PM 54.0 °F - 19.0 °F 25% 29.63 in 10.0 mi SSE 9.2 mph - N/A   Clear
10:53 PM 53.1 °F - 19.9 °F 27% 29.61 in 10.0 mi ENE 4.6 mph - N/A   Clear
11:53 PM 54.0 °F - 19.9 °F 26% 29.60 in 10.0 mi East 8.1 mph - N/A   Clear